When you browse on this site, cookies collect data to enhance your experience and personalize the content and advertising you see.
Visit our Privacy Policy to learn more. By continuing to use the site, you agree to this use of cookies and data.
  • In United Kingdom
  • List of Countries
  • For 7 days
  • Water Temperature
  • Satellite Maps
  • Weather Map
  • Weather Widgets
  • user-avatar
    Login

    Hourly Weather Iquitos

    Today, 17 July, Wednesday

    Time Temperature Precipitation Wind Pressure Humidity
    00:00 +22°C° 0 mm 0 mps 753 mmHg 93%
    01:00 +21°C° 0 mm 0 mps 753 mmHg 94%
    02:00 +21°C° 0 mm 0 mps 753 mmHg 94%
    03:00 +21°C° 0 mm 0 mps 753 mmHg 95%
    04:00 +21°C° 0 mm 0 mps 753 mmHg 95%
    05:00 +21°C° 0 mm 0 mps 753 mmHg 94%
    06:00 +22°C° 0 mm 0 mps 753 mmHg 92%
    07:00 +22°C° 0 mm 0 mps 753 mmHg 90%
    08:00 +23°C° 0.1 mm 0 mps 754 mmHg 88%
    09:00 +23°C° 0.1 mm 0 mps 754 mmHg 87%
    10:00 +24°C° 0.1 mm 0 mps 755 mmHg 85%
    11:00 +26°C° 0 mm 0 mps 754 mmHg 76%
    12:00 +28°C° 0 mm 0 mps 753 mmHg 67%
    13:00 +30°C° 0 mm 0 mps 753 mmHg 58%
    14:00 +32°C° 0.2 mm 1 mps 752 mmHg 59%
    15:00 +32°C° 0.2 mm 1 mps 751 mmHg 60%
    16:00 +32°C° 0.2 mm 1 mps 750 mmHg 61%
    17:00 +30°C° 0.8 mm 1 mps 751 mmHg 73%
    18:00 +27°C° 0.8 mm 1 mps 751 mmHg 84%
    19:00 +25°C° 0.8 mm 1 mps 752 mmHg 96%
    20:00 +23°C° 0.3 mm 0 mps 752 mmHg 96%
    21:00 +22°C° 0.3 mm 0 mps 753 mmHg 97%
    22:00 +22°C° 0.3 mm 0 mps 753 mmHg 97%
    23:00 +22°C° 0.2 mm 0 mps 753 mmHg 97%

    Tomorrow, 18 July, Thursday

    Time Temperature Precipitation Wind Pressure Humidity
    00:00 +22°C° 0.2 mm 0 mps 753 mmHg 98%
    01:00 +22°C° 0.2 mm 0 mps 753 mmHg 98%
    02:00 +22°C° 0.1 mm 0 mps 753 mmHg 98%
    03:00 +21°C° 0.1 mm 0 mps 752 mmHg 98%
    04:00 +21°C° 0.1 mm 0 mps 752 mmHg 98%
    05:00 +22°C° 0 mm 0 mps 752 mmHg 98%
    06:00 +22°C° 0 mm 0 mps 753 mmHg 97%
    07:00 +22°C° 0 mm 0 mps 753 mmHg 96%
    08:00 +25°C° 0.3 mm 0 mps 753 mmHg 88%
    09:00 +27°C° 0.3 mm 0 mps 754 mmHg 79%
    10:00 +29°C° 0.3 mm 0 mps 754 mmHg 70%
    11:00 +30°C° 0.7 mm 0 mps 753 mmHg 67%
    12:00 +32°C° 0.7 mm 1 mps 752 mmHg 64%
    13:00 +33°C° 0.7 mm 1 mps 752 mmHg 61%
    14:00 +33°C° 0 mm 1 mps 751 mmHg 59%
    15:00 +33°C° 0 mm 1 mps 750 mmHg 57%
    16:00 +33°C° 0 mm 1 mps 749 mmHg 55%
    17:00 +29°C° 0 mm 0 mps 750 mmHg 63%
    18:00 +27°C° 0 mm 0 mps 750 mmHg 72%
    19:00 +25°C° 0 mm 0 mps 751 mmHg 80%
    20:00 +24°C° 0 mm 0 mps 751 mmHg 82%
    21:00 +24°C° 0 mm 0 mps 752 mmHg 85%
    22:00 +23°C° 0 mm 0 mps 753 mmHg 87%
    23:00 +23°C° 0 mm 0 mps 752 mmHg 88%

    Day after tomorrow, 19 July, Friday

    Time Temperature Precipitation Wind Pressure Humidity
    00:00 +22°C° 0 mm 0 mps 752 mmHg 90%
    01:00 +22°C° 0 mm 0 mps 752 mmHg 91%
    02:00 +22°C° 0 mm 0 mps 752 mmHg 93%
    03:00 +22°C° 0 mm 0 mps 751 mmHg 94%
    04:00 +21°C° 0 mm 0 mps 751 mmHg 95%
    05:00 +22°C° 0 mm 0 mps 752 mmHg 93%
    06:00 +22°C° 0 mm 0 mps 752 mmHg 91%
    07:00 +23°C° 0 mm 0 mps 752 mmHg 90%
    08:00 +24°C° 0 mm 0 mps 753 mmHg 85%
    09:00 +25°C° 0 mm 0 mps 753 mmHg 81%
    10:00 +26°C° 0 mm 0 mps 754 mmHg 77%
    11:00 +28°C° 0 mm 0 mps 753 mmHg 73%
    12:00 +29°C° 0 mm 0 mps 752 mmHg 69%
    13:00 +30°C° 0 mm 0 mps 751 mmHg 65%
    14:00 +29°C° 0.6 mm 0 mps 750 mmHg 71%
    15:00 +29°C° 0.6 mm 0 mps 750 mmHg 77%
    16:00 +30°C° 0.6 mm 1 mps 749 mmHg 84%
    17:00 +29°C° 0.3 mm 1 mps 750 mmHg 87%
    18:00 +25°C° 0.3 mm 0 mps 750 mmHg 90%
    19:00 +24°C° 0.3 mm 0 mps 751 mmHg 94%
    20:00 +23°C° 0.2 mm 0 mps 751 mmHg 95%
    21:00 +23°C° 0.2 mm 0 mps 751 mmHg 96%
    22:00 +23°C° 0.2 mm 0 mps 752 mmHg 97%
    23:00 +22°C° 0 mm 0 mps 752 mmHg 97%

    20 July, Saturday

    Time Temperature Precipitation Wind Pressure Humidity
    00:00 +22°C° 0 mm 0 mps 751 mmHg 97%
    01:00 +22°C° 0 mm 0 mps 751 mmHg 97%
    02:00 +22°C° 0.2 mm 0 mps 751 mmHg 97%
    03:00 +22°C° 0.2 mm 0 mps 750 mmHg 97%
    04:00 +22°C° 0.2 mm 0 mps 750 mmHg 97%
    05:00 +22°C° 0.6 mm 0 mps 751 mmHg 97%
    06:00 +22°C° 0.6 mm 0 mps 751 mmHg 97%
    07:00 +23°C° 0.6 mm 0 mps 752 mmHg 96%
    08:00 +24°C° 0.6 mm 0 mps 752 mmHg 92%
    09:00 +26°C° 0.6 mm 0 mps 752 mmHg 87%
    10:00 +28°C° 0.6 mm 0 mps 752 mmHg 83%
    11:00 +29°C° 1 mm 0 mps 752 mmHg 78%
    12:00 +29°C° 1 mm 0 mps 751 mmHg 73%
    13:00 +30°C° 1 mm 0 mps 751 mmHg 68%
    14:00 +29°C° 1.5 mm 0 mps 750 mmHg 75%
    15:00 +28°C° 1.5 mm 0 mps 749 mmHg 83%
    16:00 +27°C° 1.5 mm 0 mps 748 mmHg 90%
    17:00 +26°C° 0.4 mm 0 mps 749 mmHg 92%
    18:00 +25°C° 0.4 mm 0 mps 749 mmHg 94%
    19:00 +23°C° 0.4 mm 0 mps 750 mmHg 96%
    20:00 +23°C° 0 mm 0 mps 750 mmHg 96%
    21:00 +23°C° 0 mm 0 mps 751 mmHg 97%
    22:00 +22°C° 0 mm 0 mps 751 mmHg 97%
    23:00 +22°C° 0 mm 0 mps 751 mmHg 97%

    21 July, Sunday

    Time Temperature Precipitation Wind Pressure Humidity
    00:00 +22°C° 0 mm 0 mps 751 mmHg 97%
    01:00 +22°C° 0 mm 0 mps 751 mmHg 98%
    02:00 +22°C° 0 mm 0 mps 750 mmHg 98%
    03:00 +22°C° 0 mm 0 mps 750 mmHg 98%
    04:00 +21°C° 0 mm 0 mps 750 mmHg 98%
    05:00 +22°C° 0 mm 0 mps 750 mmHg 98%
    06:00 +22°C° 0 mm 0 mps 751 mmHg 97%
    07:00 +22°C° 0 mm 0 mps 751 mmHg 97%
    08:00 +25°C° 0 mm 0 mps 751 mmHg 85%
    09:00 +27°C° 0 mm 0 mps 752 mmHg 74%
    10:00 +31°C° 0 mm 1 mps 752 mmHg 63%
    11:00 +32°C° 0.4 mm 1 mps 751 mmHg 63%
    12:00 +33°C° 0.4 mm 1 mps 750 mmHg 63%
    13:00 +33°C° 0.4 mm 1 mps 749 mmHg 62%
    14:00 +32°C° 1.3 mm 1 mps 749 mmHg 71%
    15:00 +31°C° 1.3 mm 1 mps 748 mmHg 80%
    16:00 +30°C° 1.3 mm 1 mps 747 mmHg 89%
    17:00 +26°C° 0.4 mm 0 mps 748 mmHg 91%
    18:00 +25°C° 0.4 mm 0 mps 749 mmHg 92%
    19:00 +24°C° 0.4 mm 0 mps 750 mmHg 94%
    20:00 +23°C° 0.3 mm 0 mps 750 mmHg 95%
    21:00 +23°C° 0.3 mm 0 mps 751 mmHg 96%
    22:00 +23°C° 0.3 mm 0 mps 751 mmHg 96%
    23:00 +23°C° 1.1 mm 0 mps 751 mmHg 97%

    22 July, Monday

    Time Temperature Precipitation Wind Pressure Humidity
    00:00 +22°C° 1.1 mm 0 mps 750 mmHg 97%
    01:00 +22°C° 1.1 mm 0 mps 750 mmHg 98%
    02:00 +22°C° 1.8 mm 0 mps 750 mmHg 98%
    03:00 +22°C° 1.8 mm 0 mps 750 mmHg 98%
    04:00 +22°C° 1.8 mm 0 mps 750 mmHg 99%
    05:00 +22°C° 0.2 mm 0 mps 750 mmHg 98%
    06:00 +22°C° 0.2 mm 0 mps 751 mmHg 98%
    07:00 +23°C° 0.2 mm 0 mps 751 mmHg 98%
    08:00 +25°C° 0.2 mm 0 mps 752 mmHg 89%
    09:00 +27°C° 0.2 mm 0 mps 752 mmHg 79%
    10:00 +29°C° 0.2 mm 0 mps 752 mmHg 70%
    11:00 +30°C° 0.5 mm 0 mps 751 mmHg 66%
    12:00 +31°C° 0.5 mm 0 mps 750 mmHg 62%
    13:00 +32°C° 0.5 mm 0 mps 749 mmHg 57%
    14:00 +31°C° 0.3 mm 0 mps 749 mmHg 62%
    15:00 +32°C° 0.3 mm 1 mps 748 mmHg 67%
    16:00 +31°C° 0.3 mm 1 mps 748 mmHg 72%
    17:00 +29°C° 0.1 mm 1 mps 748 mmHg 79%
    18:00 +28°C° 0.1 mm 1 mps 749 mmHg 86%
    19:00 +26°C° 0.1 mm 1 mps 750 mmHg 94%
    20:00 +23°C° 0.1 mm 0 mps 750 mmHg 94%
    21:00 +23°C° 0.1 mm 0 mps 751 mmHg 95%
    22:00 +23°C° 0.1 mm 0 mps 751 mmHg 96%
    23:00 +23°C° 0 mm 0 mps 751 mmHg 96%
    Show more